Time,TemperatureF,DewpointF,PressureIn,WindDirection,WindDirectionDegrees,WindSpeedMPH,WindSpeedGustMPH,Humidity,HourlyPrecipIn,Conditions,Clouds,dailyrainin,SolarRadiationWatts/m^2,SoftwareType,DateUTC
2013-09-09 00:00:00,78.4,71.0,16.46,SW,216,4.0,5.0,78,0.00,,,0.00,0,Wunderground v.1.15,2013-09-09 05:00:00,
2013-09-09 00:05:00,78.3,70.9,16.46,SSW,211,4.0,5.0,78,0.00,,,0.00,0,Wunderground v.1.15,2013-09-09 05:05:00,
2013-09-09 00:15:00,78.2,70.8,16.46,SSW,210,4.0,4.0,78,0.00,,,0.00,0,Wunderground v.1.15,2013-09-09 05:15:00,
2013-09-09 00:25:00,78.2,71.2,16.46,SW,221,5.0,5.0,79,0.00,,,0.00,0,Wunderground v.1.15,2013-09-09 05:25:00,
2013-09-09 00:35:00,77.9,70.9,16.46,SW,215,5.0,7.0,79,0.00,,,0.00,0,Wunderground v.1.15,2013-09-09 05:35:00,
2013-09-09 00:45:00,77.8,70.8,16.46,SSW,211,5.0,5.0,79,0.00,,,0.00,0,Wunderground v.1.15,2013-09-09 05:45:00,
2013-09-09 00:50:00,77.8,70.8,16.46,SSW,204,5.0,5.0,79,0.00,,,0.00,0,Wunderground v.1.15,2013-09-09 05:50:00,
2013-09-09 01:00:00,77.8,70.8,16.46,SW,219,5.0,5.0,79,0.00,,,0.00,0,Wunderground v.1.15,2013-09-09 06:00:00,
2013-09-09 01:05:00,77.8,70.8,16.46,SSW,211,5.0,5.0,79,0.00,,,0.00,0,Wunderground v.1.15,2013-09-09 06:05:00,
2013-09-09 01:15:00,77.6,70.6,16.46,SSW,212,4.0,5.0,79,0.00,,,0.00,0,Wunderground v.1.15,2013-09-09 06:15:00,
2013-09-09 01:25:00,77.5,70.5,16.46,SSW,213,4.0,4.0,79,0.00,,,0.00,0,Wunderground v.1.15,2013-09-09 06:25:00,
2013-09-09 01:35:00,77.3,70.3,16.46,SSW,207,3.0,4.0,79,0.00,,,0.00,0,Wunderground v.1.15,2013-09-09 06:35:00,
2013-09-09 01:40:00,77.2,70.5,16.46,SSW,211,3.0,3.0,80,0.00,,,0.00,0,Wunderground v.1.15,2013-09-09 06:40:00,
2013-09-09 01:50:00,77.1,70.1,16.46,SSW,211,4.0,4.0,79,0.00,,,0.00,0,Wunderground v.1.15,2013-09-09 06:50:00,
2013-09-09 02:00:00,77.0,70.4,16.46,SSW,212,4.0,4.0,80,0.00,,,0.00,0,Wunderground v.1.15,2013-09-09 07:00:00,
2013-09-09 02:05:00,76.9,70.3,16.46,SSW,205,4.0,4.0,80,0.00,,,0.00,0,Wunderground v.1.15,2013-09-09 07:05:00,
2013-09-09 02:15:00,76.7,70.1,16.46,SW,215,4.0,6.0,80,0.00,,,0.00,0,Wunderground v.1.15,2013-09-09 07:15:00,
2013-09-09 02:20:00,76.6,70.0,16.46,SSW,208,4.0,4.0,80,0.00,,,0.00,0,Wunderground v.1.15,2013-09-09 07:20:00,
2013-09-09 02:30:00,76.4,69.8,16.46,SSW,210,4.0,4.0,80,0.00,,,0.00,0,Wunderground v.1.15,2013-09-09 07:30:00,
2013-09-09 02:35:00,76.3,69.7,16.46,SSW,210,3.0,4.0,80,0.00,,,0.00,0,Wunderground v.1.15,2013-09-09 07:35:00,
2013-09-09 02:40:00,76.2,69.6,16.46,SSW,210,3.0,3.0,80,0.00,,,0.00,0,Wunderground v.1.15,2013-09-09 07:40:00,
2013-09-09 02:50:00,76.1,69.5,16.46,SSW,210,3.0,3.0,80,0.00,,,0.00,0,Wunderground v.1.15,2013-09-09 07:50:00,
2013-09-09 03:00:00,75.8,69.2,16.46,SSW,210,3.0,4.0,80,0.00,,,0.00,0,Wunderground v.1.15,2013-09-09 08:00:00,
2013-09-09 03:05:00,75.8,69.2,16.46,SSW,211,4.0,4.0,80,0.00,,,0.00,0,Wunderground v.1.15,2013-09-09 08:05:00,
2013-09-09 03:15:00,75.6,69.0,16.46,SSW,211,4.0,5.0,80,0.00,,,0.00,0,Wunderground v.1.15,2013-09-09 08:15:00,
2013-09-09 03:25:00,75.5,69.3,16.46,SSW,211,3.0,4.0,81,0.00,,,0.00,0,Wunderground v.1.15,2013-09-09 08:25:00,
2013-09-09 03:35:00,75.5,69.3,16.46,SSW,211,3.0,3.0,81,0.00,,,0.00,0,Wunderground v.1.15,2013-09-09 08:35:00,
2013-09-09 03:40:00,75.4,69.2,16.46,SSW,211,3.0,3.0,81,0.00,,,0.00,0,Wunderground v.1.15,2013-09-09 08:40:00,
2013-09-09 03:50:00,75.2,69.0,16.46,SSW,211,3.0,3.0,81,0.00,,,0.00,0,Wunderground v.1.15,2013-09-09 08:50:00,
2013-09-09 03:55:00,75.0,69.1,16.46,SSW,211,3.0,3.0,82,0.00,,,0.00,0,Wunderground v.1.15,2013-09-09 08:55:00,
2013-09-09 04:05:00,74.8,69.3,16.46,SSW,211,3.0,5.0,83,0.00,,,0.00,0,Wunderground v.1.15,2013-09-09 09:05:00,
2013-09-09 04:15:00,74.6,69.1,16.46,SSW,209,3.0,5.0,83,0.00,,,0.00,0,Wunderground v.1.15,2013-09-09 09:15:00,
2013-09-09 04:20:00,74.5,69.0,16.46,SSW,210,3.0,3.0,83,0.00,,,0.00,0,Wunderground v.1.15,2013-09-09 09:20:00,
2013-09-09 04:30:00,74.4,68.9,16.46,SSW,211,4.0,4.0,83,0.00,,,0.00,0,Wunderground v.1.15,2013-09-09 09:30:00,
2013-09-09 04:35:00,74.4,69.2,16.46,SSW,211,3.0,4.0,84,0.00,,,0.00,0,Wunderground v.1.15,2013-09-09 09:35:00,
2013-09-09 04:45:00,74.3,69.1,16.46,SSW,211,3.0,4.0,84,0.00,,,0.00,0,Wunderground v.1.15,2013-09-09 09:45:00,
2013-09-09 04:55:00,74.3,69.1,16.46,SSW,211,4.0,5.0,84,0.00,,,0.00,0,Wunderground v.1.15,2013-09-09 09:55:00,
2013-09-09 05:00:00,74.3,69.1,16.46,SSW,210,3.0,3.0,84,0.00,,,0.00,0,Wunderground v.1.15,2013-09-09 10:00:00,
2013-09-09 05:10:00,74.2,69.1,16.46,SSW,210,3.0,4.0,84,0.00,,,0.00,0,Wunderground v.1.15,2013-09-09 10:10:00,
2013-09-09 05:20:00,74.0,68.9,16.46,SSW,210,4.0,4.0,84,0.00,,,0.00,0,Wunderground v.1.15,2013-09-09 10:20:00,
2013-09-09 05:25:00,74.0,68.9,16.46,SSW,209,4.0,5.0,84,0.00,,,0.00,0,Wunderground v.1.15,2013-09-09 10:25:00,
2013-09-09 05:35:00,73.9,68.8,16.46,SSW,211,4.0,5.0,84,0.00,,,0.00,0,Wunderground v.1.15,2013-09-09 10:35:00,
2013-09-09 05:40:00,73.8,68.7,16.46,SSW,210,5.0,6.0,84,0.00,,,0.00,0,Wunderground v.1.15,2013-09-09 10:40:00,
2013-09-09 05:50:00,73.7,68.6,16.46,SSW,210,4.0,4.0,84,0.00,,,0.00,0,Wunderground v.1.15,2013-09-09 10:50:00,
2013-09-09 06:00:00,73.7,68.6,16.46,SSW,210,4.0,4.0,84,0.00,,,0.00,0,Wunderground v.1.15,2013-09-09 11:00:00,
2013-09-09 06:10:00,73.7,68.6,16.46,SSW,209,4.0,7.0,84,0.00,,,0.00,0,Wunderground v.1.15,2013-09-09 11:10:00,
2013-09-09 06:15:00,73.7,68.2,16.46,SSW,209,4.0,7.0,83,0.00,,,0.00,0,Wunderground v.1.15,2013-09-09 11:15:00,
2013-09-09 06:25:00,73.7,68.2,16.46,SSW,209,5.0,5.0,83,0.00,,,0.00,0,Wunderground v.1.15,2013-09-09 11:25:00,
2013-09-09 06:35:00,73.7,68.2,16.46,SSW,209,5.0,5.0,83,0.00,,,0.00,0,Wunderground v.1.15,2013-09-09 11:35:00,
2013-09-09 06:45:00,73.6,68.1,16.46,SSW,205,5.0,6.0,83,0.00,,,0.00,0,Wunderground v.1.15,2013-09-09 11:45:00,
2013-09-09 06:50:00,73.6,68.1,16.46,SSW,206,4.0,4.0,83,0.00,,,0.00,0,Wunderground v.1.15,2013-09-09 11:50:00,
2013-09-09 07:00:00,73.6,68.1,16.46,SSW,208,4.0,5.0,83,0.00,,,0.00,12,Wunderground v.1.15,2013-09-09 12:00:00,
2013-09-09 07:10:00,73.6,68.1,16.46,SSW,212,4.0,6.0,83,0.00,,,0.00,26,Wunderground v.1.15,2013-09-09 12:10:00,
2013-09-09 07:20:00,73.8,68.3,16.46,SSW,213,5.0,5.0,83,0.00,,,0.00,47,Wunderground v.1.15,2013-09-09 12:20:00,
2013-09-09 07:25:00,74.0,68.2,16.46,SSW,213,5.0,5.0,82,0.00,,,0.00,54,Wunderground v.1.15,2013-09-09 12:25:00,
2013-09-09 07:35:00,74.3,68.4,16.46,SW,217,5.0,6.0,82,0.00,,,0.00,49,Wunderground v.1.15,2013-09-09 12:35:00,
2013-09-09 07:45:00,74.6,68.4,16.46,SSW,210,5.0,6.0,81,0.00,,,0.00,95,Wunderground v.1.15,2013-09-09 12:45:00,
2013-09-09 07:50:00,74.8,68.6,16.46,SW,214,5.0,6.0,81,0.00,,,0.00,114,Wunderground v.1.15,2013-09-09 12:50:00,
2013-09-09 08:00:00,75.3,68.7,16.46,SSW,213,5.0,6.0,80,0.00,,,0.00,148,Wunderground v.1.15,2013-09-09 13:00:00,
2013-09-09 08:10:00,76.0,69.0,16.46,SSW,209,4.0,4.0,79,0.00,,,0.00,179,Wunderground v.1.15,2013-09-09 13:10:00,
2013-09-09 08:15:00,76.4,69.0,16.46,SSW,208,5.0,5.0,78,0.00,,,0.00,195,Wunderground v.1.15,2013-09-09 13:15:00,
2013-09-09 08:25:00,77.1,69.3,16.46,SW,219,5.0,5.0,77,0.00,,,0.00,227,Wunderground v.1.15,2013-09-09 13:25:00,
2013-09-09 08:30:00,77.6,69.8,16.46,WSW,240,5.0,8.0,77,0.00,,,0.00,241,Wunderground v.1.15,2013-09-09 13:30:00,
2013-09-09 08:40:00,78.7,69.7,16.46,SSW,209,7.0,7.0,74,0.00,,,0.00,267,Wunderground v.1.15,2013-09-09 13:40:00,
2013-09-09 08:50:00,79.6,69.8,16.46,SSW,207,5.0,5.0,72,0.00,,,0.00,304,Wunderground v.1.15,2013-09-09 13:50:00,
2013-09-09 09:00:00,80.5,69.4,16.46,SW,217,5.0,8.0,69,0.00,,,0.00,345,Wunderground v.1.15,2013-09-09 14:00:00,
2013-09-09 09:05:00,80.9,69.8,16.46,SW,222,5.0,8.0,69,0.00,,,0.00,355,Wunderground v.1.15,2013-09-09 14:05:00,
2013-09-09 09:15:00,81.6,70.4,16.46,SW,217,5.0,5.0,69,0.00,,,0.00,390,Wunderground v.1.15,2013-09-09 14:15:00,
2013-09-09 09:20:00,82.1,70.5,16.46,SW,222,4.0,5.0,68,0.00,,,0.00,401,Wunderground v.1.15,2013-09-09 14:20:00,
2013-09-09 09:30:00,82.7,70.6,16.46,SSW,205,6.0,6.0,67,0.00,,,0.00,436,Wunderground v.1.15,2013-09-09 14:30:00,
2013-09-09 09:40:00,83.4,70.4,16.46,SW,223,6.0,6.0,65,0.00,,,0.00,462,Wunderground v.1.15,2013-09-09 14:40:00,
2013-09-09 09:45:00,83.8,70.8,16.46,SW,221,6.0,9.0,65,0.00,,,0.00,482,Wunderground v.1.15,2013-09-09 14:45:00,
2013-09-09 09:55:00,84.5,70.5,16.46,SW,221,7.0,7.0,63,0.00,,,0.00,512,Wunderground v.1.15,2013-09-09 14:55:00,
2013-09-09 10:00:00,84.8,70.8,16.46,SW,215,7.0,7.0,63,0.00,,,0.00,526,Wunderground v.1.15,2013-09-09 15:00:00,
2013-09-09 10:10:00,85.5,71.0,16.46,SSW,209,6.0,6.0,62,0.00,,,0.00,554,Wunderground v.1.15,2013-09-09 15:10:00,
2013-09-09 10:20:00,86.3,71.3,16.46,SSW,208,6.0,7.0,61,0.00,,,0.00,582,Wunderground v.1.15,2013-09-09 15:20:00,
2013-09-09 10:25:00,86.4,70.9,16.46,SSW,202,6.0,7.0,60,0.00,,,0.00,596,Wunderground v.1.15,2013-09-09 15:25:00,
2013-09-09 10:35:00,86.6,70.6,16.46,SSW,213,7.0,8.0,59,0.00,,,0.00,612,Wunderground v.1.15,2013-09-09 15:35:00,
2013-09-09 10:45:00,87.4,71.3,16.46,SSW,211,6.0,7.0,59,0.00,,,0.00,640,Wunderground v.1.15,2013-09-09 15:45:00,
2013-09-09 10:55:00,88.4,71.7,16.46,SSW,209,5.0,7.0,58,0.00,,,0.00,664,Wunderground v.1.15,2013-09-09 15:55:00,
2013-09-09 11:00:00,89.0,72.3,16.46,SW,220,4.0,9.0,58,0.00,,,0.00,677,Wunderground v.1.15,2013-09-09 16:00:00,
2013-09-09 11:10:00,88.9,70.6,16.46,SW,222,8.0,11.0,55,0.00,,,0.00,698,Wunderground v.1.15,2013-09-09 16:10:00,
2013-09-09 11:20:00,89.8,71.5,16.46,SW,224,8.0,12.0,55,0.00,,,0.00,715,Wunderground v.1.15,2013-09-09 16:20:00,
2013-09-09 11:30:00,90.3,70.8,16.46,SW,225,7.0,7.0,53,0.00,,,0.00,733,Wunderground v.1.15,2013-09-09 16:30:00,
2013-09-09 11:40:00,90.5,69.9,16.46,SW,214,8.0,8.0,51,0.00,,,0.00,749,Wunderground v.1.15,2013-09-09 16:40:00,
2013-09-09 11:45:00,90.9,69.7,16.46,WSW,242,8.0,8.0,50,0.00,,,0.00,756,Wunderground v.1.15,2013-09-09 16:45:00,
2013-09-09 11:55:00,90.9,70.3,16.46,SW,225,9.0,10.0,51,0.00,,,0.00,773,Wunderground v.1.15,2013-09-09 16:55:00,
2013-09-09 12:05:00,91.6,69.7,16.46,SW,224,7.0,9.0,49,0.00,,,0.00,780,Wunderground v.1.15,2013-09-09 17:05:00,
2013-09-09 12:10:00,91.8,71.1,16.46,SW,219,6.0,7.0,51,0.00,,,0.00,786,Wunderground v.1.15,2013-09-09 17:10:00,
2013-09-09 12:20:00,92.2,69.7,16.46,WSW,246,8.0,8.0,48,0.00,,,0.00,793,Wunderground v.1.15,2013-09-09 17:20:00,
2013-09-09 12:25:00,92.2,69.7,16.46,SW,218,9.0,10.0,48,0.00,,,0.00,802,Wunderground v.1.15,2013-09-09 17:25:00,
2013-09-09 12:35:00,92.4,69.2,16.46,SW,215,9.0,10.0,47,0.00,,,0.00,810,Wunderground v.1.15,2013-09-09 17:35:00,
2013-09-09 12:45:00,92.9,69.7,16.46,SSW,211,10.0,10.0,47,0.00,,,0.00,821,Wunderground v.1.15,2013-09-09 17:45:00,
2013-09-09 12:55:00,92.9,69.7,16.46,SSW,208,8.0,10.0,47,0.00,,,0.00,782,Wunderground v.1.15,2013-09-09 17:55:00,
2013-09-09 13:05:00,93.2,70.0,16.46,SW,220,10.0,15.0,47,0.00,,,0.00,779,Wunderground v.1.15,2013-09-09 18:05:00,
2013-09-09 13:10:00,93.2,68.7,16.46,SW,227,9.0,9.0,45,0.00,,,0.00,782,Wunderground v.1.15,2013-09-09 18:10:00,
2013-09-09 13:20:00,93.4,68.2,16.46,SW,219,10.0,10.0,44,0.00,,,0.00,772,Wunderground v.1.15,2013-09-09 18:20:00,
2013-09-09 13:30:00,93.7,68.5,16.46,West,271,7.0,7.0,44,0.00,,,0.00,779,Wunderground v.1.15,2013-09-09 18:30:00,
2013-09-09 13:35:00,93.6,68.4,16.46,SW,218,9.0,9.0,44,0.00,,,0.00,824,Wunderground v.1.15,2013-09-09 18:35:00,
2013-09-09 13:45:00,93.6,66.4,16.46,SSW,211,11.0,11.0,41,0.00,,,0.00,830,Wunderground v.1.15,2013-09-09 18:45:00,
2013-09-09 13:55:00,94.1,66.1,16.46,SW,221,11.0,12.0,40,0.00,,,0.00,824,Wunderground v.1.15,2013-09-09 18:55:00,
2013-09-09 14:05:00,94.3,65.5,16.46,SW,224,12.0,12.0,39,0.00,,,0.00,824,Wunderground v.1.15,2013-09-09 19:05:00,
2013-09-09 14:10:00,94.3,65.5,16.46,SW,221,10.0,10.0,39,0.00,,,0.00,810,Wunderground v.1.15,2013-09-09 19:10:00,
2013-09-09 14:20:00,94.5,65.7,16.46,SSW,207,10.0,10.0,39,0.00,,,0.00,798,Wunderground v.1.15,2013-09-09 19:20:00,
2013-09-09 14:30:00,94.4,64.1,16.46,SW,217,11.0,11.0,37,0.00,,,0.00,789,Wunderground v.1.15,2013-09-09 19:30:00,
2013-09-09 14:35:00,94.3,61.6,16.46,SW,215,13.0,15.0,34,0.00,,,0.00,796,Wunderground v.1.15,2013-09-09 19:35:00,
2013-09-09 14:45:00,94.4,63.3,16.46,SW,227,12.0,12.0,36,0.00,,,0.00,752,Wunderground v.1.15,2013-09-09 19:45:00,
2013-09-09 14:50:00,94.8,65.2,16.46,West,271,10.0,10.0,38,0.00,,,0.00,744,Wunderground v.1.15,2013-09-09 19:50:00,
2013-09-09 14:55:00,94.8,66.0,16.46,SW,221,9.0,10.0,39,0.00,,,0.00,733,Wunderground v.1.15,2013-09-09 19:55:00,
2013-09-09 15:05:00,94.9,66.1,16.46,SSW,203,8.0,9.0,39,0.00,,,0.00,715,Wunderground v.1.15,2013-09-09 20:05:00,
2013-09-09 15:10:00,94.9,64.6,16.46,WSW,248,9.0,14.0,37,0.00,,,0.00,710,Wunderground v.1.15,2013-09-09 20:10:00,
2013-09-09 15:20:00,94.9,65.3,16.46,SW,222,9.0,15.0,38,0.00,,,0.00,668,Wunderground v.1.15,2013-09-09 20:20:00,
2013-09-09 15:30:00,94.8,63.7,16.46,SSW,199,10.0,10.0,36,0.00,,,0.00,666,Wunderground v.1.15,2013-09-09 20:30:00,
2013-09-09 15:40:00,94.7,65.1,16.46,SW,231,10.0,10.0,38,0.00,,,0.00,650,Wunderground v.1.15,2013-09-09 20:40:00,
2013-09-09 15:50:00,94.9,64.6,16.46,WSW,257,9.0,9.0,37,0.00,,,0.00,629,Wunderground v.1.15,2013-09-09 20:50:00,
2013-09-09 15:55:00,94.9,63.8,16.46,SSW,209,11.0,15.0,36,0.00,,,0.00,610,Wunderground v.1.15,2013-09-09 20:55:00,
2013-09-09 16:05:00,94.9,63.8,16.46,SW,219,9.0,10.0,36,0.00,,,0.00,584,Wunderground v.1.15,2013-09-09 21:05:00,
2013-09-09 16:10:00,94.9,63.8,16.46,SW,217,9.0,12.0,36,0.00,,,0.00,566,Wunderground v.1.15,2013-09-09 21:10:00,
2013-09-09 16:20:00,94.4,64.1,16.46,SSW,211,9.0,9.0,37,0.00,,,0.00,526,Wunderground v.1.15,2013-09-09 21:20:00,
2013-09-09 16:30:00,94.6,63.5,16.46,SW,221,8.0,8.0,36,0.00,,,0.00,506,Wunderground v.1.15,2013-09-09 21:30:00,
2013-09-09 16:35:00,94.3,64.8,16.46,SW,227,8.0,8.0,38,0.00,,,0.00,483,Wunderground v.1.15,2013-09-09 21:35:00,
2013-09-09 16:45:00,94.1,63.1,16.46,SW,225,10.0,10.0,36,0.00,,,0.00,464,Wunderground v.1.15,2013-09-09 21:45:00,
2013-09-09 16:55:00,94.1,63.9,16.46,SSW,205,9.0,11.0,37,0.00,,,0.00,438,Wunderground v.1.15,2013-09-09 21:55:00,
2013-09-09 17:05:00,93.9,62.9,16.46,SW,225,8.0,9.0,36,0.00,,,0.00,408,Wunderground v.1.15,2013-09-09 22:05:00,
2013-09-09 17:10:00,93.8,62.8,16.46,SW,217,10.0,12.0,36,0.00,,,0.00,394,Wunderground v.1.15,2013-09-09 22:10:00,
2013-09-09 17:20:00,93.5,63.3,16.46,SW,222,8.0,8.0,37,0.00,,,0.00,360,Wunderground v.1.15,2013-09-09 22:20:00,
2013-09-09 17:30:00,93.3,64.7,16.46,SW,216,7.0,9.0,39,0.00,,,0.00,325,Wunderground v.1.15,2013-09-09 22:30:00,
2013-09-09 17:40:00,92.9,64.3,16.46,SW,216,8.0,10.0,39,0.00,,,0.00,290,Wunderground v.1.15,2013-09-09 22:40:00,
2013-09-09 17:45:00,92.7,65.6,16.46,SW,218,7.0,10.0,41,0.00,,,0.00,274,Wunderground v.1.15,2013-09-09 22:45:00,
2013-09-09 17:55:00,92.3,65.2,16.46,SW,221,7.0,7.0,41,0.00,,,0.00,241,Wunderground v.1.15,2013-09-09 22:55:00,
2013-09-09 18:00:00,92.2,65.8,16.46,SW,229,6.0,6.0,42,0.00,,,0.00,225,Wunderground v.1.15,2013-09-09 23:00:00,
2013-09-09 18:10:00,91.6,65.9,16.46,SW,224,5.0,5.0,43,0.00,,,0.00,192,Wunderground v.1.15,2013-09-09 23:10:00,
2013-09-09 18:20:00,90.8,66.5,16.46,SSW,209,4.0,4.0,45,0.00,,,0.00,160,Wunderground v.1.15,2013-09-09 23:20:00,
2013-09-09 18:40:00,89.7,64.2,21.76,SSW,209,5.0,5.0,43,0.00,,,0.00,102,Wunderground v.1.15,2013-09-09 23:40:00,
2013-09-09 18:50:00,89.1,63.7,29.94,SSW,213,5.0,5.0,43,0.00,,,0.00,74,Wunderground v.1.15,2013-09-09 23:50:00,
2013-09-09 19:00:00,88.4,63.7,29.91,SW,217,5.0,5.0,44,0.00,,,0.00,49,Wunderground v.1.15,2013-09-10 00:00:00,
2013-09-09 19:10:00,87.5,63.5,29.91,SW,220,3.0,3.0,45,0.00,,,0.00,28,Wunderground v.1.15,2013-09-10 00:10:00,
2013-09-09 19:20:00,86.7,63.4,29.91,SSW,212,3.0,3.0,46,0.00,,,0.00,12,Wunderground v.1.15,2013-09-10 00:20:00,
2013-09-09 19:25:00,86.4,63.8,29.91,SSW,211,2.0,3.0,47,0.00,,,0.00,7,Wunderground v.1.15,2013-09-10 00:25:00,
2013-09-09 19:35:00,85.6,63.7,20.07,SSW,211,2.0,2.0,48,0.00,,,0.00,0,Wunderground v.1.15,2013-09-10 00:35:00,
2013-09-09 19:45:00,84.9,63.6,20.07,SSW,211,2.0,2.0,49,0.00,,,0.00,0,Wunderground v.1.15,2013-09-10 00:45:00,
2013-09-09 19:55:00,84.3,63.6,20.07,SSW,211,2.0,2.0,50,0.00,,,0.00,0,Wunderground v.1.15,2013-09-10 00:55:00,
2013-09-09 20:00:00,84.1,64.0,20.07,SSW,211,2.0,3.0,51,0.00,,,0.00,0,Wunderground v.1.15,2013-09-10 01:00:00,
2013-09-09 20:10:00,83.9,63.8,20.07,SSW,211,3.0,3.0,51,0.00,,,0.00,0,Wunderground v.1.15,2013-09-10 01:10:00,
2013-09-09 20:15:00,83.6,64.1,20.23,SSW,211,3.0,3.0,52,0.00,,,0.00,0,Wunderground v.1.15,2013-09-10 01:15:00,
2013-09-09 20:25:00,83.0,64.1,20.23,SSW,211,1.0,2.0,53,0.00,,,0.00,0,Wunderground v.1.15,2013-09-10 01:25:00,
2013-09-09 20:35:00,82.3,64.0,20.23,SSW,211,0.0,1.0,54,0.00,,,0.00,0,Wunderground v.1.15,2013-09-10 01:35:00,
2013-09-09 20:40:00,82.1,64.3,20.23,SSW,211,0.0,0.0,55,0.00,,,0.00,0,Wunderground v.1.15,2013-09-10 01:40:00,
2013-09-09 20:50:00,81.9,64.1,21.74,SSW,211,0.0,0.0,55,0.00,,,0.00,0,Wunderground v.1.15,2013-09-10 01:50:00,
2013-09-09 21:00:00,81.6,63.9,21.74,SSW,211,0.0,1.0,55,0.00,,,0.00,0,Wunderground v.1.15,2013-09-10 02:00:00,
2013-09-09 21:10:00,81.1,64.4,21.88,SSW,211,0.0,0.0,57,0.00,,,0.00,0,Wunderground v.1.15,2013-09-10 02:10:00,
2013-09-09 21:15:00,80.7,64.1,21.88,SSW,211,0.0,0.0,57,0.00,,,0.00,0,Wunderground v.1.15,2013-09-10 02:15:00,
2013-09-09 21:25:00,80.2,64.6,21.88,SSW,211,0.0,0.0,59,0.00,,,0.00,0,Wunderground v.1.15,2013-09-10 02:25:00,
2013-09-09 21:30:00,79.5,64.4,21.88,SSW,211,0.0,0.0,60,0.00,,,0.00,0,Wunderground v.1.15,2013-09-10 02:30:00,
2013-09-09 21:40:00,79.1,64.5,21.88,SSW,211,0.0,0.0,61,0.00,,,0.00,0,Wunderground v.1.15,2013-09-10 02:40:00,
2013-09-09 21:50:00,78.9,64.8,21.88,SSW,211,0.0,0.0,62,0.00,,,0.00,0,Wunderground v.1.15,2013-09-10 02:50:00,
2013-09-09 22:00:00,78.6,64.9,21.88,SSW,211,0.0,0.0,63,0.00,,,0.00,0,Wunderground v.1.15,2013-09-10 03:00:00,
2013-09-09 22:05:00,78.4,64.8,21.88,SSW,211,0.0,0.0,63,0.00,,,0.00,0,Wunderground v.1.15,2013-09-10 03:05:00,
2013-09-09 22:10:00,78.2,65.0,21.88,SSW,211,0.0,1.0,64,0.00,,,0.00,0,Wunderground v.1.15,2013-09-10 03:10:00,
2013-09-09 22:20:00,78.2,65.0,21.88,SSW,211,0.0,0.0,64,0.00,,,0.00,0,Wunderground v.1.15,2013-09-10 03:20:00,
2013-09-09 22:30:00,78.0,65.3,21.88,SSW,211,0.0,0.0,65,0.00,,,0.00,0,Wunderground v.1.15,2013-09-10 03:30:00,
2013-09-09 22:35:00,77.8,65.1,21.88,SSW,211,0.0,0.0,65,0.00,,,0.00,0,Wunderground v.1.15,2013-09-10 03:35:00,
2013-09-09 22:45:00,77.6,65.3,21.88,SSW,211,0.0,0.0,66,0.00,,,0.00,0,Wunderground v.1.15,2013-09-10 03:45:00,
2013-09-09 22:50:00,77.5,65.2,21.88,SSW,211,0.0,0.0,66,0.00,,,0.00,0,Wunderground v.1.15,2013-09-10 03:50:00,
2013-09-09 23:00:00,77.2,65.4,21.88,SSW,211,0.0,0.0,67,0.00,,,0.00,0,Wunderground v.1.15,2013-09-10 04:00:00,
2013-09-09 23:05:00,76.9,65.5,21.88,SSW,211,0.0,0.0,68,0.00,,,0.00,0,Wunderground v.1.15,2013-09-10 04:05:00,
2013-09-09 23:10:00,76.7,65.3,21.88,SSW,211,0.0,0.0,68,0.00,,,0.00,0,Wunderground v.1.15,2013-09-10 04:10:00,
2013-09-09 23:15:00,76.7,65.3,21.88,SSW,211,0.0,1.0,68,0.00,,,0.00,0,Wunderground v.1.15,2013-09-10 04:15:00,
2013-09-09 23:25:00,76.6,65.7,21.88,SSE,152,0.0,0.0,69,0.00,,,0.00,0,Wunderground v.1.15,2013-09-10 04:25:00,
2013-09-09 23:35:00,76.5,65.6,21.88,SSE,161,0.0,0.0,69,0.00,,,0.00,0,Wunderground v.1.15,2013-09-10 04:35:00,
2013-09-09 23:40:00,76.4,65.5,21.88,SSE,161,0.0,0.0,69,0.00,,,0.00,0,Wunderground v.1.15,2013-09-10 04:40:00,
2013-09-09 23:50:00,76.4,65.9,21.88,South,179,0.0,0.0,70,0.00,,,0.00,0,Wunderground v.1.15,2013-09-10 04:50:00,